Data supplied by UK-AIR on 5/4/2008
All Data GMT hour ending 
Status: R =Ratified P=Provisional,P*=As supplied
,,Somerton,,,,,,,,,,,,,,,,,,,,,,,
Date,time,"Ozone",status,unit
 
01-01-1997,01:00,,,
01-01-1997,02:00,68,R,ugm-3
01-01-1997,03:00,70,R,ugm-3
01-01-1997,04:00,68,R,ugm-3
01-01-1997,05:00,66,R,ugm-3
01-01-1997,06:00,64,R,ugm-3
01-01-1997,07:00,66,R,ugm-3
01-01-1997,08:00,66,R,ugm-3
01-01-1997,09:00,66,R,ugm-3
01-01-1997,10:00,66,R,ugm-3
01-01-1997,11:00,68,R,ugm-3
01-01-1997,12:00,70,R,ugm-3
01-01-1997,13:00,72,R,ugm-3
01-01-1997,14:00,72,R,ugm-3
01-01-1997,15:00,72,R,ugm-3
01-01-1997,16:00,68,R,ugm-3
01-01-1997,17:00,68,R,ugm-3
01-01-1997,18:00,66,R,ugm-3
01-01-1997,19:00,64,R,ugm-3
01-01-1997,20:00,58,R,ugm-3
01-01-1997,21:00,52,R,ugm-3
01-01-1997,22:00,46,R,ugm-3
01-01-1997,23:00,46,R,ugm-3
01-01-1997,24:00,46,R,ugm-3
02-01-1997,01:00,46,R,ugm-3
02-01-1997,02:00,42,R,ugm-3
02-01-1997,03:00,46,R,ugm-3
02-01-1997,04:00,50,R,ugm-3
02-01-1997,05:00,48,R,ugm-3
02-01-1997,06:00,48,R,ugm-3
02-01-1997,07:00,42,R,ugm-3
02-01-1997,08:00,28,R,ugm-3
02-01-1997,09:00,22,R,ugm-3
02-01-1997,10:00,20,R,ugm-3
02-01-1997,11:00,18,R,ugm-3
02-01-1997,12:00,14,R,ugm-3
02-01-1997,13:00,16,R,ugm-3
02-01-1997,14:00,26,R,ugm-3
02-01-1997,15:00,36,R,ugm-3
02-01-1997,16:00,30,R,ugm-3
02-01-1997,17:00,28,R,ugm-3
02-01-1997,18:00,12,R,ugm-3
02-01-1997,19:00,8,R,ugm-3
02-01-1997,20:00,6,R,ugm-3
02-01-1997,21:00,2,R,ugm-3
02-01-1997,22:00,8,R,ugm-3
02-01-1997,23:00,6,R,ugm-3
02-01-1997,24:00,10,R,ugm-3
03-01-1997,01:00,18,R,ugm-3
03-01-1997,02:00,28,R,ugm-3
03-01-1997,03:00,28,R,ugm-3
03-01-1997,04:00,42,R,ugm-3
03-01-1997,05:00,46,R,ugm-3
03-01-1997,06:00,40,R,ugm-3
03-01-1997,07:00,40,R,ugm-3
03-01-1997,08:00,44,R,ugm-3
03-01-1997,09:00,46,R,ugm-3
03-01-1997,10:00,46,R,ugm-3
03-01-1997,11:00,46,R,ugm-3
03-01-1997,12:00,40,R,ugm-3
03-01-1997,13:00,42,R,ugm-3
03-01-1997,14:00,44,R,ugm-3
03-01-1997,15:00,44,R,ugm-3
03-01-1997,16:00,48,R,ugm-3
03-01-1997,17:00,50,R,ugm-3
03-01-1997,18:00,50,R,ugm-3
03-01-1997,19:00,48,R,ugm-3
03-01-1997,20:00,48,R,ugm-3
03-01-1997,21:00,44,R,ugm-3
03-01-1997,22:00,44,R,ugm-3
03-01-1997,23:00,44,R,ugm-3
03-01-1997,24:00,42,R,ugm-3
04-01-1997,01:00,44,R,ugm-3
04-01-1997,02:00,46,R,ugm-3
04-01-1997,03:00,48,R,ugm-3
04-01-1997,04:00,48,R,ugm-3
04-01-1997,05:00,52,R,ugm-3
04-01-1997,06:00,60,R,ugm-3
04-01-1997,07:00,60,R,ugm-3
04-01-1997,08:00,58,R,ugm-3
04-01-1997,09:00,58,R,ugm-3
04-01-1997,10:00,58,R,ugm-3
04-01-1997,11:00,60,R,ugm-3
04-01-1997,12:00,58,R,ugm-3
04-01-1997,13:00,58,R,ugm-3
04-01-1997,14:00,62,R,ugm-3
04-01-1997,15:00,62,R,ugm-3
04-01-1997,16:00,62,R,ugm-3
04-01-1997,17:00,60,R,ugm-3
04-01-1997,18:00,60,R,ugm-3
04-01-1997,19:00,62,R,ugm-3
04-01-1997,20:00,60,R,ugm-3
04-01-1997,21:00,62,R,ugm-3
04-01-1997,22:00,62,R,ugm-3
04-01-1997,23:00,62,R,ugm-3
04-01-1997,24:00,62,R,ugm-3
05-01-1997,01:00,60,R,ugm-3
05-01-1997,02:00,60,R,ugm-3
05-01-1997,03:00,62,R,ugm-3
05-01-1997,04:00,62,R,ugm-3
05-01-1997,05:00,64,R,ugm-3
05-01-1997,06:00,64,R,ugm-3
05-01-1997,07:00,64,R,ugm-3
05-01-1997,08:00,62,R,ugm-3
05-01-1997,09:00,62,R,ugm-3
05-01-1997,10:00,60,R,ugm-3
05-01-1997,11:00,64,R,ugm-3
05-01-1997,12:00,64,R,ugm-3
05-01-1997,13:00,66,R,ugm-3
05-01-1997,14:00,64,R,ugm-3
05-01-1997,15:00,66,R,ugm-3
05-01-1997,16:00,62,R,ugm-3
05-01-1997,17:00,56,R,ugm-3
05-01-1997,18:00,60,R,ugm-3
05-01-1997,19:00,64,R,ugm-3
05-01-1997,20:00,64,R,ugm-3
05-01-1997,21:00,66,R,ugm-3
05-01-1997,22:00,60,R,ugm-3
05-01-1997,23:00,58,R,ugm-3
05-01-1997,24:00,62,R,ugm-3
06-01-1997,01:00,62,R,ugm-3
06-01-1997,02:00,64,R,ugm-3
06-01-1997,03:00,62,R,ugm-3
06-01-1997,04:00,60,R,ugm-3
06-01-1997,05:00,56,R,ugm-3
06-01-1997,06:00,54,R,ugm-3
06-01-1997,07:00,50,R,ugm-3
06-01-1997,08:00,46,R,ugm-3
06-01-1997,09:00,52,R,ugm-3
06-01-1997,10:00,52,R,ugm-3
06-01-1997,11:00,,,
06-01-1997,12:00,44,R,ugm-3
06-01-1997,13:00,42,R,ugm-3
06-01-1997,14:00,36,R,ugm-3
06-01-1997,15:00,28,R,ugm-3
06-01-1997,16:00,28,R,ugm-3
06-01-1997,17:00,36,R,ugm-3
06-01-1997,18:00,20,R,ugm-3
06-01-1997,19:00,10,R,ugm-3
06-01-1997,20:00,16,R,ugm-3
06-01-1997,21:00,6,R,ugm-3
06-01-1997,22:00,6,R,ugm-3
06-01-1997,23:00,6,R,ugm-3
06-01-1997,24:00,6,R,ugm-3
07-01-1997,01:00,6,R,ugm-3
07-01-1997,02:00,2,R,ugm-3
07-01-1997,03:00,2,R,ugm-3
07-01-1997,04:00,12,R,ugm-3
07-01-1997,05:00,6,R,ugm-3
07-01-1997,06:00,2,R,ugm-3
07-01-1997,07:00,8,R,ugm-3
07-01-1997,08:00,32,R,ugm-3
07-01-1997,09:00,44,R,ugm-3
07-01-1997,10:00,38,R,ugm-3
07-01-1997,11:00,22,R,ugm-3
07-01-1997,12:00,24,R,ugm-3
07-01-1997,13:00,34,R,ugm-3
07-01-1997,14:00,36,R,ugm-3
07-01-1997,15:00,,,
07-01-1997,16:00,34,R,ugm-3
07-01-1997,17:00,32,R,ugm-3
07-01-1997,18:00,30,R,ugm-3
07-01-1997,19:00,26,R,ugm-3
07-01-1997,20:00,22,R,ugm-3
07-01-1997,21:00,18,R,ugm-3
07-01-1997,22:00,12,R,ugm-3
07-01-1997,23:00,16,R,ugm-3
07-01-1997,24:00,14,R,ugm-3
08-01-1997,01:00,22,R,ugm-3
08-01-1997,02:00,22,R,ugm-3
08-01-1997,03:00,22,R,ugm-3
08-01-1997,04:00,26,R,ugm-3
08-01-1997,05:00,26,R,ugm-3
08-01-1997,06:00,26,R,ugm-3
08-01-1997,07:00,30,R,ugm-3
08-01-1997,08:00,34,R,ugm-3
08-01-1997,09:00,26,R,ugm-3
08-01-1997,10:00,22,R,ugm-3
08-01-1997,11:00,18,R,ugm-3
08-01-1997,12:00,20,R,ugm-3
08-01-1997,13:00,24,R,ugm-3
08-01-1997,14:00,32,R,ugm-3
08-01-1997,15:00,28,R,ugm-3
08-01-1997,16:00,26,R,ugm-3
08-01-1997,17:00,28,R,ugm-3
08-01-1997,18:00,30,R,ugm-3
08-01-1997,19:00,28,R,ugm-3
08-01-1997,20:00,22,R,ugm-3
08-01-1997,21:00,10,R,ugm-3
08-01-1997,22:00,8,R,ugm-3
08-01-1997,23:00,14,R,ugm-3
08-01-1997,24:00,14,R,ugm-3
09-01-1997,01:00,6,R,ugm-3
09-01-1997,02:00,24,R,ugm-3
09-01-1997,03:00,26,R,ugm-3
09-01-1997,04:00,18,R,ugm-3
09-01-1997,05:00,12,R,ugm-3
09-01-1997,06:00,14,R,ugm-3
09-01-1997,07:00,4,R,ugm-3
09-01-1997,08:00,0,R,ugm-3
09-01-1997,09:00,0,R,ugm-3
09-01-1997,10:00,2,R,ugm-3
09-01-1997,11:00,4,R,ugm-3
09-01-1997,12:00,6,R,ugm-3
09-01-1997,13:00,6,R,ugm-3
09-01-1997,14:00,6,R,ugm-3
09-01-1997,15:00,4,R,ugm-3
09-01-1997,16:00,6,R,ugm-3
09-01-1997,17:00,0,R,ugm-3
09-01-1997,18:00,2,R,ugm-3
09-01-1997,19:00,14,R,ugm-3
09-01-1997,20:00,22,R,ugm-3
09-01-1997,21:00,28,R,ugm-3
09-01-1997,22:00,36,R,ugm-3
09-01-1997,23:00,42,R,ugm-3
09-01-1997,24:00,44,R,ugm-3
10-01-1997,01:00,42,R,ugm-3
10-01-1997,02:00,36,R,ugm-3
10-01-1997,03:00,36,R,ugm-3
10-01-1997,04:00,40,R,ugm-3
10-01-1997,05:00,46,R,ugm-3
10-01-1997,06:00,40,R,ugm-3
10-01-1997,07:00,34,R,ugm-3
10-01-1997,08:00,44,R,ugm-3
10-01-1997,09:00,42,R,ugm-3
10-01-1997,10:00,44,R,ugm-3
10-01-1997,11:00,46,R,ugm-3
10-01-1997,12:00,44,R,ugm-3
10-01-1997,13:00,40,R,ugm-3
10-01-1997,14:00,32,R,ugm-3
10-01-1997,15:00,26,R,ugm-3
10-01-1997,16:00,14,R,ugm-3
10-01-1997,17:00,18,R,ugm-3
10-01-1997,18:00,12,R,ugm-3
10-01-1997,19:00,18,R,ugm-3
10-01-1997,20:00,18,R,ugm-3
10-01-1997,21:00,12,R,ugm-3
10-01-1997,22:00,8,R,ugm-3
10-01-1997,23:00,8,R,ugm-3
10-01-1997,24:00,10,R,ugm-3
11-01-1997,01:00,14,R,ugm-3
11-01-1997,02:00,14,R,ugm-3
11-01-1997,03:00,10,R,ugm-3
11-01-1997,04:00,10,R,ugm-3
11-01-1997,05:00,6,R,ugm-3
11-01-1997,06:00,6,R,ugm-3
11-01-1997,07:00,6,R,ugm-3
11-01-1997,08:00,6,R,ugm-3
11-01-1997,09:00,6,R,ugm-3
11-01-1997,10:00,6,R,ugm-3
11-01-1997,11:00,,,
11-01-1997,12:00,6,R,ugm-3
11-01-1997,13:00,6,R,ugm-3
11-01-1997,14:00,4,R,ugm-3
11-01-1997,15:00,2,R,ugm-3
11-01-1997,16:00,2,R,ugm-3
11-01-1997,17:00,0,R,ugm-3
11-01-1997,18:00,0,R,ugm-3
11-01-1997,19:00,0,R,ugm-3
11-01-1997,20:00,0,R,ugm-3
11-01-1997,21:00,0,R,ugm-3
11-01-1997,22:00,0,R,ugm-3
11-01-1997,23:00,2,R,ugm-3
11-01-1997,24:00,2,R,ugm-3
12-01-1997,01:00,8,R,ugm-3
12-01-1997,02:00,16,R,ugm-3
12-01-1997,03:00,28,R,ugm-3
12-01-1997,04:00,32,R,ugm-3
12-01-1997,05:00,30,R,ugm-3
12-01-1997,06:00,28,R,ugm-3
12-01-1997,07:00,26,R,ugm-3
12-01-1997,08:00,26,R,ugm-3
12-01-1997,09:00,28,R,ugm-3
12-01-1997,10:00,26,R,ugm-3
12-01-1997,11:00,24,R,ugm-3
12-01-1997,12:00,24,R,ugm-3
12-01-1997,13:00,26,R,ugm-3
12-01-1997,14:00,24,R,ugm-3
12-01-1997,15:00,26,R,ugm-3
12-01-1997,16:00,24,R,ugm-3
12-01-1997,17:00,26,R,ugm-3
12-01-1997,18:00,24,R,ugm-3
12-01-1997,19:00,24,R,ugm-3
12-01-1997,20:00,10,R,ugm-3
12-01-1997,21:00,10,R,ugm-3
12-01-1997,22:00,10,R,ugm-3
12-01-1997,23:00,14,R,ugm-3
12-01-1997,24:00,18,R,ugm-3
13-01-1997,01:00,40,R,ugm-3
13-01-1997,02:00,40,R,ugm-3
13-01-1997,03:00,42,R,ugm-3
13-01-1997,04:00,44,R,ugm-3
13-01-1997,05:00,46,R,ugm-3
13-01-1997,06:00,38,R,ugm-3
13-01-1997,07:00,22,R,ugm-3
13-01-1997,08:00,4,R,ugm-3
13-01-1997,09:00,2,R,ugm-3
13-01-1997,10:00,6,R,ugm-3
13-01-1997,11:00,,,
13-01-1997,12:00,34,R,ugm-3
13-01-1997,13:00,52,R,ugm-3
13-01-1997,14:00,58,R,ugm-3
13-01-1997,15:00,58,R,ugm-3
13-01-1997,16:00,46,R,ugm-3
13-01-1997,17:00,30,R,ugm-3
13-01-1997,18:00,18,R,ugm-3
13-01-1997,19:00,14,R,ugm-3
13-01-1997,20:00,14,R,ugm-3
13-01-1997,21:00,14,R,ugm-3
13-01-1997,22:00,20,R,ugm-3
13-01-1997,23:00,20,R,ugm-3
13-01-1997,24:00,24,R,ugm-3
14-01-1997,01:00,24,R,ugm-3
14-01-1997,02:00,16,R,ugm-3
14-01-1997,03:00,10,R,ugm-3
14-01-1997,04:00,6,R,ugm-3
14-01-1997,05:00,6,R,ugm-3
14-01-1997,06:00,6,R,ugm-3
14-01-1997,07:00,4,R,ugm-3
14-01-1997,08:00,0,R,ugm-3
14-01-1997,09:00,4,R,ugm-3
14-01-1997,10:00,8,R,ugm-3
14-01-1997,11:00,12,R,ugm-3
14-01-1997,12:00,14,R,ugm-3
14-01-1997,13:00,16,R,ugm-3
14-01-1997,14:00,18,R,ugm-3
14-01-1997,15:00,18,R,ugm-3
14-01-1997,16:00,10,R,ugm-3
14-01-1997,17:00,2,R,ugm-3
14-01-1997,18:00,0,R,ugm-3
14-01-1997,19:00,0,R,ugm-3
14-01-1997,20:00,2,R,ugm-3
14-01-1997,21:00,0,R,ugm-3
14-01-1997,22:00,0,R,ugm-3
14-01-1997,23:00,0,R,ugm-3
14-01-1997,24:00,0,R,ugm-3
15-01-1997,01:00,2,R,ugm-3
15-01-1997,02:00,2,R,ugm-3
15-01-1997,03:00,10,R,ugm-3
15-01-1997,04:00,12,R,ugm-3
15-01-1997,05:00,4,R,ugm-3
15-01-1997,06:00,10,R,ugm-3
15-01-1997,07:00,10,R,ugm-3
15-01-1997,08:00,8,R,ugm-3
15-01-1997,09:00,0,R,ugm-3
15-01-1997,10:00,2,R,ugm-3
15-01-1997,11:00,10,R,ugm-3
15-01-1997,12:00,20,R,ugm-3
15-01-1997,13:00,34,R,ugm-3
15-01-1997,14:00,32,R,ugm-3
15-01-1997,15:00,24,R,ugm-3
15-01-1997,16:00,26,R,ugm-3
15-01-1997,17:00,20,R,ugm-3
15-01-1997,18:00,20,R,ugm-3
15-01-1997,19:00,4,R,ugm-3
15-01-1997,20:00,6,R,ugm-3
15-01-1997,21:00,6,R,ugm-3
15-01-1997,22:00,16,R,ugm-3
15-01-1997,23:00,14,R,ugm-3
15-01-1997,24:00,8,R,ugm-3
16-01-1997,01:00,8,R,ugm-3
16-01-1997,02:00,6,R,ugm-3
16-01-1997,03:00,8,R,ugm-3
16-01-1997,04:00,14,R,ugm-3
16-01-1997,05:00,20,R,ugm-3
16-01-1997,06:00,24,R,ugm-3
16-01-1997,07:00,28,R,ugm-3
16-01-1997,08:00,30,R,ugm-3
16-01-1997,09:00,28,R,ugm-3
16-01-1997,10:00,28,R,ugm-3
16-01-1997,11:00,36,R,ugm-3
16-01-1997,12:00,38,R,ugm-3
16-01-1997,13:00,46,R,ugm-3
16-01-1997,14:00,50,R,ugm-3
16-01-1997,15:00,46,R,ugm-3
16-01-1997,16:00,52,R,ugm-3
16-01-1997,17:00,44,R,ugm-3
16-01-1997,18:00,34,R,ugm-3
16-01-1997,19:00,34,R,ugm-3
16-01-1997,20:00,32,R,ugm-3
16-01-1997,21:00,30,R,ugm-3
16-01-1997,22:00,34,R,ugm-3
16-01-1997,23:00,34,R,ugm-3
16-01-1997,24:00,42,R,ugm-3
17-01-1997,01:00,46,R,ugm-3
17-01-1997,02:00,44,R,ugm-3
17-01-1997,03:00,44,R,ugm-3
17-01-1997,04:00,44,R,ugm-3
17-01-1997,05:00,50,R,ugm-3
17-01-1997,06:00,50,R,ugm-3
17-01-1997,07:00,48,R,ugm-3
17-01-1997,08:00,44,R,ugm-3
17-01-1997,09:00,36,R,ugm-3
17-01-1997,10:00,36,R,ugm-3
17-01-1997,11:00,38,R,ugm-3
17-01-1997,12:00,42,R,ugm-3
17-01-1997,13:00,52,R,ugm-3
17-01-1997,14:00,64,R,ugm-3
17-01-1997,15:00,58,R,ugm-3
17-01-1997,16:00,48,R,ugm-3
17-01-1997,17:00,38,R,ugm-3
17-01-1997,18:00,38,R,ugm-3
17-01-1997,19:00,30,R,ugm-3
17-01-1997,20:00,44,R,ugm-3
17-01-1997,21:00,44,R,ugm-3
17-01-1997,22:00,46,R,ugm-3
17-01-1997,23:00,44,R,ugm-3
17-01-1997,24:00,48,R,ugm-3
18-01-1997,01:00,58,R,ugm-3
18-01-1997,02:00,58,R,ugm-3
18-01-1997,03:00,62,R,ugm-3
18-01-1997,04:00,62,R,ugm-3
18-01-1997,05:00,60,R,ugm-3
18-01-1997,06:00,60,R,ugm-3
18-01-1997,07:00,54,R,ugm-3
18-01-1997,08:00,52,R,ugm-3
18-01-1997,09:00,60,R,ugm-3
18-01-1997,10:00,58,R,ugm-3
18-01-1997,11:00,62,R,ugm-3
18-01-1997,12:00,60,R,ugm-3
18-01-1997,13:00,66,R,ugm-3
18-01-1997,14:00,66,R,ugm-3
18-01-1997,15:00,66,R,ugm-3
18-01-1997,16:00,62,R,ugm-3
18-01-1997,17:00,62,R,ugm-3
18-01-1997,18:00,58,R,ugm-3
18-01-1997,19:00,50,R,ugm-3
18-01-1997,20:00,50,R,ugm-3
18-01-1997,21:00,54,R,ugm-3
18-01-1997,22:00,56,R,ugm-3
18-01-1997,23:00,52,R,ugm-3
18-01-1997,24:00,50,R,ugm-3
19-01-1997,01:00,50,R,ugm-3
19-01-1997,02:00,38,R,ugm-3
19-01-1997,03:00,22,R,ugm-3
19-01-1997,04:00,32,R,ugm-3
19-01-1997,05:00,36,R,ugm-3
19-01-1997,06:00,36,R,ugm-3
19-01-1997,07:00,32,R,ugm-3
19-01-1997,08:00,32,R,ugm-3
19-01-1997,09:00,30,R,ugm-3
19-01-1997,10:00,28,R,ugm-3
19-01-1997,11:00,28,R,ugm-3
19-01-1997,12:00,30,R,ugm-3
19-01-1997,13:00,30,R,ugm-3
19-01-1997,14:00,30,R,ugm-3
19-01-1997,15:00,32,R,ugm-3
19-01-1997,16:00,20,R,ugm-3
19-01-1997,17:00,14,R,ugm-3
19-01-1997,18:00,14,R,ugm-3
19-01-1997,19:00,12,R,ugm-3
19-01-1997,20:00,12,R,ugm-3
19-01-1997,21:00,12,R,ugm-3
19-01-1997,22:00,10,R,ugm-3
19-01-1997,23:00,12,R,ugm-3
19-01-1997,24:00,10,R,ugm-3
20-01-1997,01:00,6,R,ugm-3
20-01-1997,02:00,12,R,ugm-3
20-01-1997,03:00,20,R,ugm-3
20-01-1997,04:00,22,R,ugm-3
20-01-1997,05:00,28,R,ugm-3
20-01-1997,06:00,32,R,ugm-3
20-01-1997,07:00,48,R,ugm-3
20-01-1997,08:00,48,R,ugm-3
20-01-1997,09:00,36,R,ugm-3
20-01-1997,10:00,26,R,ugm-3
20-01-1997,11:00,,,
20-01-1997,12:00,,,
20-01-1997,13:00,48,R,ugm-3
20-01-1997,14:00,56,R,ugm-3
20-01-1997,15:00,56,R,ugm-3
20-01-1997,16:00,52,R,ugm-3
20-01-1997,17:00,26,R,ugm-3
20-01-1997,18:00,8,R,ugm-3
20-01-1997,19:00,2,R,ugm-3
20-01-1997,20:00,2,R,ugm-3
20-01-1997,21:00,6,R,ugm-3
20-01-1997,22:00,18,R,ugm-3
20-01-1997,23:00,18,R,ugm-3
20-01-1997,24:00,16,R,ugm-3
21-01-1997,01:00,18,R,ugm-3
21-01-1997,02:00,18,R,ugm-3
21-01-1997,03:00,26,R,ugm-3
21-01-1997,04:00,26,R,ugm-3
21-01-1997,05:00,32,R,ugm-3
21-01-1997,06:00,48,R,ugm-3
21-01-1997,07:00,46,R,ugm-3
21-01-1997,08:00,38,R,ugm-3
21-01-1997,09:00,46,R,ugm-3
21-01-1997,10:00,58,R,ugm-3
21-01-1997,11:00,54,R,ugm-3
21-01-1997,12:00,50,R,ugm-3
21-01-1997,13:00,50,R,ugm-3
21-01-1997,14:00,32,R,ugm-3
21-01-1997,15:00,32,R,ugm-3
21-01-1997,16:00,30,R,ugm-3
21-01-1997,17:00,16,R,ugm-3
21-01-1997,18:00,10,R,ugm-3
21-01-1997,19:00,8,R,ugm-3
21-01-1997,20:00,4,R,ugm-3
21-01-1997,21:00,4,R,ugm-3
21-01-1997,22:00,2,R,ugm-3
21-01-1997,23:00,0,R,ugm-3
21-01-1997,24:00,0,R,ugm-3
22-01-1997,01:00,0,R,ugm-3
22-01-1997,02:00,0,R,ugm-3
22-01-1997,03:00,0,R,ugm-3
22-01-1997,04:00,0,R,ugm-3
22-01-1997,05:00,0,R,ugm-3
22-01-1997,06:00,0,R,ugm-3
22-01-1997,07:00,0,R,ugm-3
22-01-1997,08:00,0,R,ugm-3
22-01-1997,09:00,0,R,ugm-3
22-01-1997,10:00,2,R,ugm-3
22-01-1997,11:00,6,R,ugm-3
22-01-1997,12:00,6,R,ugm-3
22-01-1997,13:00,4,R,ugm-3
22-01-1997,14:00,4,R,ugm-3
22-01-1997,15:00,2,R,ugm-3
22-01-1997,16:00,0,R,ugm-3
22-01-1997,17:00,4,R,ugm-3
22-01-1997,18:00,4,R,ugm-3
22-01-1997,19:00,14,R,ugm-3
22-01-1997,20:00,24,R,ugm-3
22-01-1997,21:00,16,R,ugm-3
22-01-1997,22:00,6,R,ugm-3
22-01-1997,23:00,0,R,ugm-3
22-01-1997,24:00,0,R,ugm-3
23-01-1997,01:00,0,R,ugm-3
23-01-1997,02:00,0,R,ugm-3
23-01-1997,03:00,0,R,ugm-3
23-01-1997,04:00,0,R,ugm-3
23-01-1997,05:00,0,R,ugm-3
23-01-1997,06:00,0,R,ugm-3
23-01-1997,07:00,0,R,ugm-3
23-01-1997,08:00,0,R,ugm-3
23-01-1997,09:00,2,R,ugm-3
23-01-1997,10:00,4,R,ugm-3
23-01-1997,11:00,16,R,ugm-3
23-01-1997,12:00,22,R,ugm-3
23-01-1997,13:00,28,R,ugm-3
23-01-1997,14:00,52,R,ugm-3
23-01-1997,15:00,54,R,ugm-3
23-01-1997,16:00,50,R,ugm-3
23-01-1997,17:00,34,R,ugm-3
23-01-1997,18:00,16,R,ugm-3
23-01-1997,19:00,2,R,ugm-3
23-01-1997,20:00,4,R,ugm-3
23-01-1997,21:00,0,R,ugm-3
23-01-1997,22:00,2,R,ugm-3
23-01-1997,23:00,6,R,ugm-3
23-01-1997,24:00,10,R,ugm-3
24-01-1997,01:00,14,R,ugm-3
24-01-1997,02:00,24,R,ugm-3
24-01-1997,03:00,36,R,ugm-3
24-01-1997,04:00,36,R,ugm-3
24-01-1997,05:00,34,R,ugm-3
24-01-1997,06:00,34,R,ugm-3
24-01-1997,07:00,40,R,ugm-3
24-01-1997,08:00,38,R,ugm-3
24-01-1997,09:00,36,R,ugm-3
24-01-1997,10:00,40,R,ugm-3
24-01-1997,11:00,44,R,ugm-3
24-01-1997,12:00,44,R,ugm-3
24-01-1997,13:00,42,R,ugm-3
24-01-1997,14:00,40,R,ugm-3
24-01-1997,15:00,44,R,ugm-3
24-01-1997,16:00,40,R,ugm-3
24-01-1997,17:00,24,R,ugm-3
24-01-1997,18:00,8,R,ugm-3
24-01-1997,19:00,8,R,ugm-3
24-01-1997,20:00,4,R,ugm-3
24-01-1997,21:00,0,R,ugm-3
24-01-1997,22:00,0,R,ugm-3
24-01-1997,23:00,0,R,ugm-3
24-01-1997,24:00,0,R,ugm-3
25-01-1997,01:00,0,R,ugm-3
25-01-1997,02:00,2,R,ugm-3
25-01-1997,03:00,2,R,ugm-3
25-01-1997,04:00,0,R,ugm-3
25-01-1997,05:00,0,R,ugm-3
25-01-1997,06:00,4,R,ugm-3
25-01-1997,07:00,4,R,ugm-3
25-01-1997,08:00,0,R,ugm-3
25-01-1997,09:00,2,R,ugm-3
25-01-1997,10:00,8,R,ugm-3
25-01-1997,11:00,10,R,ugm-3
25-01-1997,12:00,12,R,ugm-3
25-01-1997,13:00,14,R,ugm-3
25-01-1997,14:00,14,R,ugm-3
25-01-1997,15:00,12,R,ugm-3
25-01-1997,16:00,6,R,ugm-3
25-01-1997,17:00,2,R,ugm-3
25-01-1997,18:00,0,R,ugm-3
25-01-1997,19:00,0,R,ugm-3
25-01-1997,20:00,0,R,ugm-3
25-01-1997,21:00,0,R,ugm-3
25-01-1997,22:00,0,R,ugm-3
25-01-1997,23:00,2,R,ugm-3
25-01-1997,24:00,4,R,ugm-3
26-01-1997,01:00,10,R,ugm-3
26-01-1997,02:00,6,R,ugm-3
26-01-1997,03:00,4,R,ugm-3
26-01-1997,04:00,2,R,ugm-3
26-01-1997,05:00,2,R,ugm-3
26-01-1997,06:00,0,R,ugm-3
26-01-1997,07:00,0,R,ugm-3
26-01-1997,08:00,2,R,ugm-3
26-01-1997,09:00,6,R,ugm-3
26-01-1997,10:00,14,R,ugm-3
26-01-1997,11:00,22,R,ugm-3
26-01-1997,12:00,36,R,ugm-3
26-01-1997,13:00,46,R,ugm-3
26-01-1997,14:00,44,R,ugm-3
26-01-1997,15:00,44,R,ugm-3
26-01-1997,16:00,40,R,ugm-3
26-01-1997,17:00,28,R,ugm-3
26-01-1997,18:00,20,R,ugm-3
26-01-1997,19:00,10,R,ugm-3
26-01-1997,20:00,14,R,ugm-3
26-01-1997,21:00,6,R,ugm-3
26-01-1997,22:00,2,R,ugm-3
26-01-1997,23:00,2,R,ugm-3
26-01-1997,24:00,4,R,ugm-3
27-01-1997,01:00,2,R,ugm-3
27-01-1997,02:00,2,R,ugm-3
27-01-1997,03:00,2,R,ugm-3
27-01-1997,04:00,2,R,ugm-3
27-01-1997,05:00,0,R,ugm-3
27-01-1997,06:00,0,R,ugm-3
27-01-1997,07:00,0,R,ugm-3
27-01-1997,08:00,2,R,ugm-3
27-01-1997,09:00,2,R,ugm-3
27-01-1997,10:00,2,R,ugm-3
27-01-1997,11:00,4,R,ugm-3
27-01-1997,12:00,4,R,ugm-3
27-01-1997,13:00,6,R,ugm-3
27-01-1997,14:00,8,R,ugm-3
27-01-1997,15:00,,,
27-01-1997,16:00,,,
27-01-1997,17:00,6,R,ugm-3
27-01-1997,18:00,4,R,ugm-3
27-01-1997,19:00,2,R,ugm-3
27-01-1997,20:00,0,R,ugm-3
27-01-1997,21:00,2,R,ugm-3
27-01-1997,22:00,0,R,ugm-3
27-01-1997,23:00,0,R,ugm-3
27-01-1997,24:00,10,R,ugm-3
28-01-1997,01:00,12,R,ugm-3
28-01-1997,02:00,8,R,ugm-3
28-01-1997,03:00,10,R,ugm-3
28-01-1997,04:00,20,R,ugm-3
28-01-1997,05:00,40,R,ugm-3
28-01-1997,06:00,48,R,ugm-3
28-01-1997,07:00,52,R,ugm-3
28-01-1997,08:00,54,R,ugm-3
28-01-1997,09:00,44,R,ugm-3
28-01-1997,10:00,36,R,ugm-3
28-01-1997,11:00,42,R,ugm-3
28-01-1997,12:00,52,R,ugm-3
28-01-1997,13:00,54,R,ugm-3
28-01-1997,14:00,54,R,ugm-3
28-01-1997,15:00,54,R,ugm-3
28-01-1997,16:00,50,R,ugm-3
28-01-1997,17:00,32,R,ugm-3
28-01-1997,18:00,20,R,ugm-3
28-01-1997,19:00,24,R,ugm-3
28-01-1997,20:00,26,R,ugm-3
28-01-1997,21:00,10,R,ugm-3
28-01-1997,22:00,12,R,ugm-3
28-01-1997,23:00,6,R,ugm-3
28-01-1997,24:00,2,R,ugm-3
29-01-1997,01:00,2,R,ugm-3
29-01-1997,02:00,6,R,ugm-3
29-01-1997,03:00,18,R,ugm-3
29-01-1997,04:00,20,R,ugm-3
29-01-1997,05:00,4,R,ugm-3
29-01-1997,06:00,16,R,ugm-3
29-01-1997,07:00,18,R,ugm-3
29-01-1997,08:00,18,R,ugm-3
29-01-1997,09:00,12,R,ugm-3
29-01-1997,10:00,8,R,ugm-3
29-01-1997,11:00,12,R,ugm-3
29-01-1997,12:00,20,R,ugm-3
29-01-1997,13:00,40,R,ugm-3
29-01-1997,14:00,50,R,ugm-3
29-01-1997,15:00,46,R,ugm-3
29-01-1997,16:00,42,R,ugm-3
29-01-1997,17:00,46,R,ugm-3
29-01-1997,18:00,40,R,ugm-3
29-01-1997,19:00,36,R,ugm-3
29-01-1997,20:00,6,R,ugm-3
29-01-1997,21:00,4,R,ugm-3
29-01-1997,22:00,18,R,ugm-3
29-01-1997,23:00,38,R,ugm-3
29-01-1997,24:00,40,R,ugm-3
30-01-1997,01:00,44,R,ugm-3
30-01-1997,02:00,56,R,ugm-3
30-01-1997,03:00,56,R,ugm-3
30-01-1997,04:00,42,R,ugm-3
30-01-1997,05:00,34,R,ugm-3
30-01-1997,06:00,34,R,ugm-3
30-01-1997,07:00,38,R,ugm-3
30-01-1997,08:00,34,R,ugm-3
30-01-1997,09:00,36,R,ugm-3
30-01-1997,10:00,30,R,ugm-3
30-01-1997,11:00,40,R,ugm-3
30-01-1997,12:00,36,R,ugm-3
30-01-1997,13:00,36,R,ugm-3
30-01-1997,14:00,32,R,ugm-3
30-01-1997,15:00,28,R,ugm-3
30-01-1997,16:00,32,R,ugm-3
30-01-1997,17:00,34,R,ugm-3
30-01-1997,18:00,34,R,ugm-3
30-01-1997,19:00,30,R,ugm-3
30-01-1997,20:00,26,R,ugm-3
30-01-1997,21:00,28,R,ugm-3
30-01-1997,22:00,32,R,ugm-3
30-01-1997,23:00,30,R,ugm-3
30-01-1997,24:00,30,R,ugm-3
31-01-1997,01:00,30,R,ugm-3
31-01-1997,02:00,30,R,ugm-3
31-01-1997,03:00,34,R,ugm-3
31-01-1997,04:00,44,R,ugm-3
31-01-1997,05:00,46,R,ugm-3
31-01-1997,06:00,44,R,ugm-3
31-01-1997,07:00,40,R,ugm-3
31-01-1997,08:00,46,R,ugm-3
31-01-1997,09:00,42,R,ugm-3
31-01-1997,10:00,36,R,ugm-3
31-01-1997,11:00,30,R,ugm-3
31-01-1997,12:00,32,R,ugm-3
31-01-1997,13:00,,,
31-01-1997,14:00,,,
31-01-1997,15:00,,,
31-01-1997,16:00,,,
31-01-1997,17:00,38,R,ugm-3
31-01-1997,18:00,40,R,ugm-3
31-01-1997,19:00,38,R,ugm-3
31-01-1997,20:00,38,R,ugm-3
31-01-1997,21:00,32,R,ugm-3
31-01-1997,22:00,38,R,ugm-3
31-01-1997,23:00,38,R,ugm-3
31-01-1997,24:00,32,R,ugm-3
01-02-1997,01:00,26,R,ugm-3
01-02-1997,02:00,18,R,ugm-3
01-02-1997,03:00,20,R,ugm-3
01-02-1997,04:00,26,R,ugm-3
01-02-1997,05:00,30,R,ugm-3
01-02-1997,06:00,36,R,ugm-3
01-02-1997,07:00,34,R,ugm-3
01-02-1997,08:00,34,R,ugm-3
01-02-1997,09:00,32,R,ugm-3
01-02-1997,10:00,28,R,ugm-3
01-02-1997,11:00,18,R,ugm-3
01-02-1997,12:00,20,R,ugm-3
01-02-1997,13:00,20,R,ugm-3
01-02-1997,14:00,12,R,ugm-3
01-02-1997,15:00,4,R,ugm-3
01-02-1997,16:00,2,R,ugm-3
01-02-1997,17:00,2,R,ugm-3
01-02-1997,18:00,2,R,ugm-3
01-02-1997,19:00,2,R,ugm-3
01-02-1997,20:00,2,R,ugm-3
01-02-1997,21:00,2,R,ugm-3
01-02-1997,22:00,2,R,ugm-3
01-02-1997,23:00,2,R,ugm-3
01-02-1997,24:00,-2,R,ugm-3
02-02-1997,01:00,0,R,ugm-3
02-02-1997,02:00,2,R,ugm-3
02-02-1997,03:00,8,R,ugm-3
02-02-1997,04:00,16,R,ugm-3
02-02-1997,05:00,24,R,ugm-3
02-02-1997,06:00,30,R,ugm-3
02-02-1997,07:00,30,R,ugm-3
02-02-1997,08:00,38,R,ugm-3
02-02-1997,09:00,36,R,ugm-3
02-02-1997,10:00,38,R,ugm-3
02-02-1997,11:00,50,R,ugm-3
02-02-1997,12:00,54,R,ugm-3
02-02-1997,13:00,58,R,ugm-3
02-02-1997,14:00,60,R,ugm-3
02-02-1997,15:00,58,R,ugm-3
02-02-1997,16:00,60,R,ugm-3
02-02-1997,17:00,60,R,ugm-3
02-02-1997,18:00,54,R,ugm-3
02-02-1997,19:00,48,R,ugm-3
02-02-1997,20:00,44,R,ugm-3
02-02-1997,21:00,40,R,ugm-3
02-02-1997,22:00,40,R,ugm-3
02-02-1997,23:00,38,R,ugm-3
02-02-1997,24:00,22,R,ugm-3
03-02-1997,01:00,36,R,ugm-3
03-02-1997,02:00,24,R,ugm-3
03-02-1997,03:00,18,R,ugm-3
03-02-1997,04:00,8,R,ugm-3
03-02-1997,05:00,18,R,ugm-3
03-02-1997,06:00,16,R,ugm-3
03-02-1997,07:00,18,R,ugm-3
03-02-1997,08:00,4,R,ugm-3
03-02-1997,09:00,2,R,ugm-3
03-02-1997,10:00,8,R,ugm-3
03-02-1997,11:00,16,R,ugm-3
03-02-1997,12:00,,,
03-02-1997,13:00,62,R,ugm-3
03-02-1997,14:00,62,R,ugm-3
03-02-1997,15:00,60,R,ugm-3
03-02-1997,16:00,56,R,ugm-3
03-02-1997,17:00,60,R,ugm-3
03-02-1997,18:00,60,R,ugm-3
03-02-1997,19:00,64,R,ugm-3
03-02-1997,20:00,72,R,ugm-3
03-02-1997,21:00,74,R,ugm-3
03-02-1997,22:00,74,R,ugm-3
03-02-1997,23:00,76,R,ugm-3
03-02-1997,24:00,76,R,ugm-3
04-02-1997,01:00,74,R,ugm-3
04-02-1997,02:00,74,R,ugm-3
04-02-1997,03:00,76,R,ugm-3
04-02-1997,04:00,76,R,ugm-3
04-02-1997,05:00,76,R,ugm-3
04-02-1997,06:00,76,R,ugm-3
04-02-1997,07:00,74,R,ugm-3
04-02-1997,08:00,72,R,ugm-3
04-02-1997,09:00,70,R,ugm-3
04-02-1997,10:00,72,R,ugm-3
04-02-1997,11:00,70,R,ugm-3
04-02-1997,12:00,70,R,ugm-3
04-02-1997,13:00,68,R,ugm-3
04-02-1997,14:00,64,R,ugm-3
04-02-1997,15:00,64,R,ugm-3
04-02-1997,16:00,60,R,ugm-3
04-02-1997,17:00,54,R,ugm-3
04-02-1997,18:00,36,R,ugm-3
04-02-1997,19:00,22,R,ugm-3
04-02-1997,20:00,20,R,ugm-3
04-02-1997,21:00,26,R,ugm-3
04-02-1997,22:00,32,R,ugm-3
04-02-1997,23:00,30,R,ugm-3
04-02-1997,24:00,38,R,ugm-3
05-02-1997,01:00,48,R,ugm-3
05-02-1997,02:00,38,R,ugm-3
05-02-1997,03:00,18,R,ugm-3
05-02-1997,04:00,12,R,ugm-3
05-02-1997,05:00,22,R,ugm-3
05-02-1997,06:00,40,R,ugm-3
05-02-1997,07:00,46,R,ugm-3
05-02-1997,08:00,40,R,ugm-3
05-02-1997,09:00,28,R,ugm-3
05-02-1997,10:00,,,
05-02-1997,11:00,38,R,ugm-3
05-02-1997,12:00,52,R,ugm-3
05-02-1997,13:00,68,R,ugm-3
05-02-1997,14:00,74,R,ugm-3
05-02-1997,15:00,76,R,ugm-3
05-02-1997,16:00,70,R,ugm-3
05-02-1997,17:00,60,R,ugm-3
05-02-1997,18:00,40,R,ugm-3
05-02-1997,19:00,30,R,ugm-3
05-02-1997,20:00,36,R,ugm-3
05-02-1997,21:00,44,R,ugm-3
05-02-1997,22:00,38,R,ugm-3